Delta Junction, AK

6:32 PM AKDT on August 25, 2016 (GMT -0800)
Allen Army Air Field

Weather History for PABI - January, 2014

Change the Weather History Date:

Wednesday, January 22, 2014

  Actual Average Record
Temperature  
Mean Temperature 28 °F -  
Max Temperature 33 °F 5 °F 52 °F (2008)
Min Temperature 23 °F -2 °F -27 °F (1997)
Degree Days  
Heating Degree Days 38    
Moisture  
Dew Point 21 °F    
Average Humidity 72    
Maximum Humidity 86    
Minimum Humidity 58    
Precipitation  
Precipitation 0.00 in - - ()
Sea Level Pressure  
Sea Level Pressure 29.73 in    
Wind  
Wind Speed 14 mph (ESE)    
Max Wind Speed 61 mph    
Max Gust Speed 43 mph    
Visibility 10 miles    
Events      
Averages and records for this station are not official NWS values.
T = Trace of Precipitation, MM = Missing Value Source: NWS Daily Summary

Daily Weather History Graph

Daily Weather History Graph

Search for Another Location

Airport or City:

Trip Planner

Search our weather history database for the weather conditions in past years. The results will help you decide how hot, cold, wet, or windy it might be!

Date:

Astronomy

Jan. 22, 2014 Rise Set
Actual Time 9:50 AM AKST 3:59 PM AKST
Civil Twilight 8:48 AM AKST 5:01 PM AKST
Nautical Twilight 7:46 AM AKST 6:03 PM AKST
Astronomical Twilight 6:50 AM AKST 6:59 PM AKST
Moon 12:02 AM AKST (1/22) 10:26 AM AKST (1/22)
Length of Visible Light 8h 13m
Length of Day
6h 09m
Waning Gibbous, 64% of the Moon is Illuminated
Jan 22
Waning Gibbous
Jan 23
Last Quarter
Jan 30
New
Feb 6
First Quarter
Feb 14
Full

Hourly Weather History & Observations

Time (AKST) Temp. Windchill Dew Point Humidity Pressure Visibility Wind Dir Wind Speed Gust Speed Precip Events Conditions
12:53 AM 30.0 °F 16.6 °F 19.0 °F 64% 29.69 in 10.0 mi ESE 23.0 mph 31.1 mph N/A   Partly Cloudy
1:53 AM 28.9 °F 21.9 °F 19.0 °F 67% 29.79 in 10.0 mi NW 6.9 mph - N/A   Scattered Clouds
2:53 AM 28.9 °F 25.2 °F 19.9 °F 69% 29.82 in 10.0 mi SSW 3.5 mph - N/A   Mostly Cloudy
3:13 AM 30.2 °F 25.4 °F 21.2 °F 69% 29.76 in 10.0 mi SW 4.6 mph - N/A   Overcast
3:53 AM 30.0 °F 25.2 °F 24.1 °F 79% 29.84 in 10.0 mi WSW 4.6 mph - N/A   Overcast
4:05 AM 30.2 °F 24.3 °F 24.8 °F 80% 29.76 in 10.0 mi WSW 5.8 mph - N/A   Overcast
4:53 AM 28.0 °F - 24.1 °F 85% 29.84 in 10.0 mi Calm Calm - N/A   Mostly Cloudy
5:03 AM 28.4 °F 24.6 °F 24.8 °F 86% 29.77 in 10.0 mi ESE 3.5 mph - N/A   Mostly Cloudy
5:53 AM 28.0 °F 22.8 °F 24.1 °F 85% 29.87 in 10.0 mi SE 4.6 mph - N/A   Overcast
6:53 AM 28.9 °F 23.9 °F 21.9 °F 75% 29.87 in 10.0 mi East 4.6 mph - N/A   Overcast
7:07 AM 28.4 °F 22.2 °F 21.2 °F 74% 29.79 in 10.0 mi East 5.8 mph - N/A   Overcast
7:15 AM 28.4 °F 20.4 °F 21.2 °F 74% 29.79 in 10.0 mi East 8.1 mph - N/A   Overcast
7:53 AM 27.0 °F 18.0 °F 19.0 °F 72% 29.88 in 10.0 mi East 9.2 mph - N/A   Overcast
8:53 AM 24.1 °F 15.2 °F 18.0 °F 77% 29.88 in 10.0 mi East 8.1 mph - N/A   Overcast
9:53 AM 24.1 °F 15.2 °F 18.0 °F 77% 29.86 in 10.0 mi ESE 8.1 mph - N/A   Overcast
10:54 AM 24.8 °F 16.1 °F 17.6 °F 74% 29.77 in 10.0 mi ESE 8.1 mph - N/A   Overcast
11:53 AM - - - N/A% - - North - - N/A   Unknown
12:53 PM - - - N/A% - - North - - N/A   Unknown
1:53 PM - - - N/A% - - North - - N/A   Unknown
2:53 PM - - - N/A% - - North - - N/A   Unknown
3:53 PM 30.9 °F 16.4 °F 21.9 °F 69% 29.61 in 10.0 mi ESE 28.8 mph 35.7 mph N/A   Mostly Cloudy
4:53 PM 30.9 °F 15.7 °F 21.9 °F 69% 29.58 in 10.0 mi East 32.2 mph 42.6 mph N/A   Mostly Cloudy
5:53 PM 30.9 °F 16.9 °F 21.9 °F 69% 29.58 in 10.0 mi ESE 26.5 mph 36.8 mph 0.00 in   Mostly Cloudy
6:53 PM 30.9 °F 17.5 °F 21.9 °F 69% 29.58 in 10.0 mi ESE 24.2 mph 31.1 mph 0.00 in   Overcast
7:53 PM 28.9 °F 14.8 °F 21.9 °F 75% 29.56 in 10.0 mi East 24.2 mph 29.9 mph N/A   Mostly Cloudy
8:53 PM 30.0 °F 16.0 °F 21.9 °F 72% 29.57 in 10.0 mi ESE 25.3 mph 36.8 mph N/A   Scattered Clouds
9:31 PM 30.9 °F 19.1 °F 23.0 °F 72% 29.57 in 10.0 mi ESE 18.4 mph 35.7 mph N/A   Scattered Clouds
9:53 PM 32.0 °F 18.4 °F 23.0 °F 69% 29.57 in 10.0 mi ESE 26.5 mph 33.4 mph N/A   Clear
10:53 PM 32.0 °F 19.8 °F 23.0 °F 69% 29.57 in 10.0 mi ESE 20.7 mph - N/A   Clear
11:53 PM 33.1 °F 20.6 °F 24.1 °F 70% 29.56 in 10.0 mi ESE 23.0 mph - N/A   Clear